"Pseudo-MPEC" for P10RpQQ

Created 2019 Sep 20 23:07:23 UT using Find_Orb

Click here for an explanation of pseudo-MPECs

 
 Astrometry: 
     P10RpQQ  C2019 09 06C'gtk+AstrometryuTsa08f%paFDxD+3Ea@F.OBredacted;kLI2F51
     P10RpQQ  C2019 09 06GnrvIkclick]3)#lSd9Q]\O\CI\here,BeN38R9r5IcL6FforO)SF51
     P10RpQQ  C2019 09 06mB_/YA8o?;Q%]p-K.9K!:Cj=`T`E79lYRexplanationUltGamclF51

Station data:
(F51) Pan-STARRS 1, Haleakala  (N20.707235 W156.255910)  US/Hawaii.
   Observers N. Primak, A. Schultz, S. Watters, J. Thiel, T. Goggia. Measurer
   PS1 Science Consortium. 1.8-m Ritchey-Chrétien + CCD.

Orbital elements:  P10RpQQ
   Perihelion 2019 Sep 11.138852 +/- 43 TT =  3:19:56 (JD 2458737.638852)
Epoch 2019 Sep  6.0 TT = JDT 2458732.5   Earth MOID: 0.2862   Ma: 0.0119
M 358.77909181 +/- 20               (J2000 ecliptic)          AutoNEOCP
n   0.23758383 +/- 0.252            Peri.   10.08634 +/- 60
a   2.58181306 +/- 1.82             Node   335.11495 +/- 45
e   0.4988360 +/- 0.252             Incl.    2.68466 +/- 1.5
P   4.15                   H 22.7   G  0.15   U 11.8  SR
q 1.29391156 +/- 0.29    Q 3.86971456 +/- 53.2
From 3 observations 2019 Sept. 6 (48.1 min); mean residual 0".06
Residuals in arcseconds: 
190906 F51  .07-  .05-    190906 F51  .10+  .07+    190906 F51  .02-  .02-    

Ephemerides (geocentric):
Date (UTC) HH   RA              Dec         delta   r     elong  mag " sig PA
---- -- -- --  -------------   -----------  ------ ------ -----  --- ---- ---
2019 09 20 23  22 38 03.329   -04 48 39.04  .30606 1.2981 161.5 21.5  52d 174
2019 09 21 00  22 38 06.155   -04 48 00.50  .30615 1.2982 161.5 21.5  52d 174
2019 09 21 01  22 38 08.984   -04 47 21.97  .30623 1.2982 161.5 21.5  52d 174
2019 09 21 02  22 38 11.814   -04 46 43.45  .30631 1.2983 161.4 21.5  52d 174
2019 09 21 03  22 38 14.647   -04 46 04.94  .30640 1.2983 161.4 21.5  52d 174
2019 09 21 04  22 38 17.482   -04 45 26.44  .30648 1.2983 161.4 21.5  52d 174
2019 09 21 05  22 38 20.318   -04 44 47.95  .30657 1.2984 161.4 21.5  52d 174
2019 09 21 06  22 38 23.157   -04 44 09.47  .30666 1.2984 161.3 21.5  52d 174
2019 09 21 07  22 38 25.998   -04 43 31.00  .30674 1.2984 161.3 21.5  52d 174
2019 09 21 08  22 38 28.841   -04 42 52.54  .30683 1.2985 161.3 21.5  52d 174
2019 09 21 09  22 38 31.686   -04 42 14.09  .30691 1.2985 161.3 21.5  52d 174
2019 09 21 10  22 38 34.534   -04 41 35.65  .30700 1.2986 161.2 21.5  52d 174
2019 09 21 11  22 38 37.383   -04 40 57.22  .30709 1.2986 161.2 21.5  52d 174
2019 09 21 12  22 38 40.234   -04 40 18.80  .30717 1.2986 161.2 21.5  52d 174
2019 09 21 13  22 38 43.088   -04 39 40.39  .30726 1.2987 161.1 21.5  52d 174
2019 09 21 14  22 38 45.943   -04 39 01.99  .30735 1.2987 161.1 21.5  52d 174
2019 09 21 15  22 38 48.801   -04 38 23.60  .30744 1.2987 161.1 21.6  52d 174
2019 09 21 16  22 38 51.660   -04 37 45.22  .30752 1.2988 161.1 21.6  52d 174
2019 09 21 17  22 38 54.522   -04 37 06.85  .30761 1.2988 161.0 21.6  52d 174
2019 09 21 18  22 38 57.386   -04 36 28.49  .30770 1.2989 161.0 21.6  52d 174
2019 09 21 19  22 39 00.252   -04 35 50.15  .30779 1.2989 161.0 21.6  52d 174
2019 09 21 20  22 39 03.120   -04 35 11.81  .30788 1.2989 161.0 21.6  52d 174
2019 09 21 21  22 39 05.990   -04 34 33.48  .30796 1.2990 160.9 21.6  52d 174
2019 09 21 22  22 39 08.862   -04 33 55.16  .30805 1.2990 160.9 21.6  52d 174
2019 09 21 23  22 39 11.736   -04 33 16.85  .30814 1.2991 160.9 21.6  52d 174
2019 09 22 00  22 39 14.612   -04 32 38.56  .30823 1.2991 160.9 21.6  52d 174
2019 09 22 01  22 39 17.490   -04 32 00.27  .30832 1.2991 160.8 21.6  52d 174
2019 09 22 02  22 39 20.371   -04 31 21.99  .30841 1.2992 160.8 21.6  52d 174
2019 09 22 03  22 39 23.253   -04 30 43.73  .30850 1.2992 160.8 21.6  52d 174
2019 09 22 04  22 39 26.138   -04 30 05.47  .30859 1.2993 160.8 21.6  52d 174
2019 09 22 05  22 39 29.024   -04 29 27.23  .30868 1.2993 160.7 21.6  53d 174
2019 09 22 06  22 39 31.913   -04 28 49.00  .30877 1.2993 160.7 21.6  53d 174
2019 09 22 07  22 39 34.804   -04 28 10.77  .30886 1.2994 160.7 21.6  53d 174
2019 09 22 08  22 39 37.697   -04 27 32.56  .30895 1.2994 160.7 21.6  53d 174
2019 09 22 09  22 39 40.592   -04 26 54.36  .30905 1.2995 160.6 21.6  53d 174
2019 09 22 10  22 39 43.489   -04 26 16.17  .30914 1.2995 160.6 21.6  53d 174
2019 09 22 11  22 39 46.388   -04 25 37.99  .30923 1.2995 160.6 21.6  53d 174
2019 09 22 12  22 39 49.289   -04 24 59.81  .30932 1.2996 160.5 21.6  53d 174
2019 09 22 13  22 39 52.192   -04 24 21.66  .30941 1.2996 160.5 21.6  53d 174
2019 09 22 14  22 39 55.097   -04 23 43.51  .30951 1.2997 160.5 21.6  53d 174
2019 09 22 15  22 39 58.005   -04 23 05.37  .30960 1.2997 160.5 21.6  53d 174
2019 09 22 16  22 40 00.914   -04 22 27.24  .30969 1.2997 160.4 21.6  53d 174
2019 09 22 17  22 40 03.826   -04 21 49.13  .30978 1.2998 160.4 21.6  53d 174
2019 09 22 18  22 40 06.740   -04 21 11.02  .30988 1.2998 160.4 21.6  53d 174
2019 09 22 19  22 40 09.655   -04 20 32.93  .30997 1.2999 160.4 21.6  53d 174
2019 09 22 20  22 40 12.573   -04 19 54.84  .31006 1.2999 160.3 21.6  53d 174
2019 09 22 21  22 40 15.493   -04 19 16.77  .31016 1.3000 160.3 21.6  53d 174
2019 09 22 22  22 40 18.415   -04 18 38.71  .31025 1.3000 160.3 21.6  53d 174